Simultaneous Nadir Overpasses (SNOs) Predictions

Prediction of SNOs between METOP-A and TERRA Satellite Orbit:

Table of predicted SNOs for the next 14.0 days since TLE Epoch: 2/13/2016
Index Date (METOP-A) Time (METOP-A) Lat,Lon (METOP-A) SZA (METOP-A ) Date (TERRA) Time (TERRA) Lat,Lon (TERRA) SZA (TERRA ) Distance(km) Time Diff (sec)
1 02/13/2016 16:15:45 81.29, -17.08 96.96 02/13/2016 16:15:56 81.29, -17.08 96.96 0.35 11
2 02/13/2016 17:06:24 -81.30, 150.82 83.00 02/13/2016 17:05:22 -81.30, 150.79 83.02 0.55 62
3 02/16/2016 10:59:30 -81.29,-118.37 84.03 02/16/2016 11:00:43 -81.28,-118.38 84.00 0.43 73
4 02/16/2016 11:50:10 81.29, 49.38 96.01 02/16/2016 11:50:09 81.29, 49.39 96.01 0.32 1
5 02/16/2016 12:40:47 -81.31,-141.89 83.85 02/16/2016 12:39:33 -81.35,-141.96 83.86 4.11 74
6 02/19/2016 06:33:55 -81.29, -51.93 85.00 02/19/2016 06:34:56 -81.28, -52.02 84.99 1.86 61
7 02/19/2016 07:24:35 81.29, 115.78 95.04 02/19/2016 07:24:22 81.29, 115.71 95.02 1.52 13
8 02/22/2016 02:08:19 -81.29, 14.46 86.00 02/22/2016 02:09:07 -81.29, 14.58 85.96 2.07 48
9 02/22/2016 02:58:59 81.29,-177.88 94.03 02/22/2016 02:58:33 81.29,-177.72 94.04 2.74 26
10 02/24/2016 21:42:43 -81.29, 81.17 86.98 02/24/2016 21:43:19 -81.29, 81.05 86.98 2.21 36




NCC Satellite Simultaneous Nadir Overpasses (SNOs) Prediction Service
